LiveATC.Net - Listen to live air traffic control over the Internet!


ICAO: N57  IATA: N57   Airport: New Garden Airport
City: Toughkenamon   State/Province: Pennsylvania
Country: United States   Continent: North America
KMQS METAR Weather: KMQS 172215Z AUTO 36006KT 10SM CLR 23/06 A3001 RMK AO2
N57 Flight Activity (FlightAware)
N57 Airport Info   (iFlightPlanner)
N57 VFR Sectional Chart   (iFlightPlanner) 
N57 IFR Low Chart   (iFlightPlanner) 

N57 CTAF
Feed Status: UP   Listeners: 0
Listen in your browser - HTML5 player (in browser, HTML5)
Click here to listen with your own player (launches your MP3 player)
Archive Access: N57 CTAF
FacilityFrequency
New Garden CTAF123.050

NOTICE

Unauthorized use prohibited. See LiveATC.net Terms of Service


Airport/ARTCC Code
Frequency Search
(e.g., 124.400, 128.75)
Site-wide search
 


Browse Feeds
Top 50 Feeds
HF Oceanic Feeds
Coverage Map
Bad Weather Areas

LiveATC FAQ
Offer LiveATC feed
Contact LiveATC.net
Press Inquiries

LiveATC on iPhone
LiveATC on Android

Windows Phone
Windows 8/10

LiveATC Mobile
(Mobile browser)

ATC Audio Archives
Interesting Recordings

LiveATC Forums


Home Page
About LiveATC.net
Make a Donation
Terms of Use
Privacy Policy

Canadian Air Freqs

AIRMETs/SIGMETs

FAA Airport Status
NAS Status
Arrival Demand


Server Software By:
Icecast.org
Liquidsoap